GW1682 Weather Reports


time (UTC)temp
C
wind
direction
speed
KPH
gust
KPH
rain 1hr
cm
rain 24hr
cm
rain mn
cm
humidity
%
barometer
mb
20260906095019 33 257 1.6 6.4 0.00 0.00 0.00 38 1017.1
20260906093519 33 206 3.2 8.0 0.00 0.00 0.00 36 1017.3
20260906092015 32 268 3.2 8.0 0.00 0.00 0.00 39 1017.5
20260906090517 32 241 1.6 6.4 0.00 0.00 0.00 38 1017.5
20260906085021 31 262 1.6 9.7 0.00 0.00 0.00 41 1017.4
20260906083515 31 216 1.6 6.4 0.00 0.00 0.00 37 1017.5
20260906082036 32 345 0.0 9.7 0.00 0.00 0.00 31 1017.5
20260906080516 31 310 3.2 9.7 0.00 0.00 0.00 31 1017.5
20260906075017 31 0 1.6 6.4 0.00 0.00 0.00 33 1017.6
20260906073518 31 320 0.0 3.2 0.00 0.00 0.00 33 1017.5
20260906072017 30 285 1.6 6.4 0.00 0.00 0.00 34 1017.5
20260906070515 29 333 1.6 4.8 0.00 0.00 0.00 34 1017.3
20260906065021 29 309 0.0 4.8 0.00 0.00 0.00 35 1017.3
20260906063516 28 234 0.0 0.0 0.00 0.00 0.00 37 1017.0
20260906060515 27 286 0.0 0.0 0.00 0.00 0.00 39 1016.8
20260906053513 26 296 0.0 0.0 0.00 0.00 0.00 39 1016.7
20260906052012 26 118 0.0 0.0 0.00 0.00 0.00 39 1016.6
20260906045014 24 118 0.0 0.0 0.00 0.00 0.00 40 1016.6
20260906043513 24 138 0.0 0.0 0.00 0.00 0.00 40 1016.6
20260906042017 24 145 0.0 0.0 0.00 0.00 0.00 39 1016.2
20260906040511 24 145 0.0 0.0 0.00 0.00 0.00 39 1016.1
20260906033509 23 145 0.0 0.0 0.00 0.00 0.00 40 1015.9
20260906032011 24 145 0.0 0.0 0.00 0.00 0.00 39 1015.9
20260906030509 24 147 0.0 0.0 0.00 0.00 0.00 37 1015.9
20260906025009 25 148 0.0 0.0 0.00 0.00 0.00 36 1015.7
20260906023514 24 149 0.0 3.2 0.00 0.00 0.00 37 1015.5
20260906022011 24 158 0.0 3.2 0.00 0.00 0.00 37 1015.6
20260906020509 25 141 1.6 3.2 0.00 0.00 0.00 36 1015.5
20260906015016 25 159 1.6 4.8 0.00 0.00 0.00 35 1015.7
20260906013508 25 147 0.0 3.2 0.00 0.00 0.00 36 1015.8
20260906012006 25 149 0.0 0.0 0.00 0.00 0.00 37 1015.9
20260906010509 25 152 0.0 1.6 0.00 0.00 0.00 36 1016.0
20260906005005 25 171 0.0 3.2 0.00 0.00 0.00 36 1015.9
20260906003506 25 137 1.6 3.2 0.00 0.00 0.00 36 1016.0
20260906002008 25 147 1.6 3.2 0.00 0.00 0.00 37 1015.8
20260905235004 25 161 0.0 3.2 0.00 0.00 0.00 36 1016.0
20260905233509 25 149 3.2 4.8 0.00 0.00 0.00 37 1016.1
20260905230502 25 178 1.6 3.2 0.00 0.00 0.00 36 1016.5
20260905225002 25 148 0.0 0.0 0.00 0.00 0.00 35 1016.5
20260905223502 25 148 0.0 0.0 0.00 0.00 0.00 35 1016.5
20260905220501 26 172 0.0 3.2 0.00 0.00 0.00 34 1016.5
20260905215004 26 151 3.2 4.8 0.00 0.00 0.00 35 1016.5
20260905212005 26 175 0.0 0.0 0.00 0.00 0.00 35 1016.8
20260905210501 27 238 0.0 0.0 0.00 0.00 0.00 35 1016.7
20260905205005 26 130 0.0 0.0 0.00 0.00 0.00 35 1016.6
20260905203502 26 171 0.0 3.2 0.00 0.00 0.00 35 1016.5
20260905202002 26 59 0.0 3.2 0.00 0.00 0.00 35 1016.5
20260905200507 27 16 1.6 4.8 0.00 0.00 0.00 35 1016.6
20260905195003 27 0 0.0 3.2 0.00 0.00 0.00 33 1016.6
20260905193502 27 66 0.0 1.6 0.00 0.00 0.00 34 1016.6
20260905192002 27 182 0.0 6.4 0.00 0.00 0.00 34 1016.6
20260905185001 27 124 1.6 6.4 0.00 0.00 0.00 35 1016.6
20260905183504 28 63 3.2 9.7 0.00 0.00 0.00 35 1016.6
20260905175005 28 28 3.2 9.7 0.00 0.00 0.00 35 1016.2
20260905173501 28 68 1.6 4.8 0.00 0.00 0.00 36 1016.1
20260905172001 28 103 0.0 6.4 0.00 0.00 0.00 34 1016.0
20260905163501 30 6 3.2 9.7 0.00 0.00 0.00 33 1015.8
20260905162005 30 1 1.6 16.1 0.00 0.00 0.00 32 1015.8
20260905160501 30 1 6.4 14.5 0.00 0.00 0.00 31 1015.9
20260905153501 31 82 8.0 19.3 0.00 0.00 0.00 30 1015.9
20260905150501 31 344 6.4 17.7 0.00 0.00 0.00 31 1015.9
20260905145001 31 310 8.0 16.1 0.00 0.00 0.00 31 1015.7
20260905142004 32 195 3.2 19.3 0.00 0.00 0.00 32 1015.6
20260905140501 31 14 6.4 20.9 0.00 0.00 0.00 32 1015.7
20260905135001 31 11 8.0 19.3 0.00 0.00 0.00 32 1015.8
20260905133501 32 348 3.2 19.3 0.00 0.00 0.00 32 1015.8
20260905132003 32 343 8.0 17.7 0.00 0.00 0.00 31 1015.9
20260905130503 32 358 4.8 19.3 0.00 0.00 0.00 31 1015.9
20260905125002 32 103 8.0 25.7 0.00 0.00 0.00 31 1016.0
20260905123501 32 14 8.0 20.9 0.00 0.00 0.00 30 1016.1
20260905120500 31 135 6.4 24.1 0.00 0.00 0.00 33 1016.5
20260905115001 31 347 6.4 19.3 0.00 0.00 0.00 33 1016.5
20260905113503 31 0 6.4 19.3 0.00 0.00 0.00 32 1016.5
20260905110501 31 4 8.0 20.9 0.00 0.00 0.00 32 1016.6
20260905105000 31 353 4.8 24.1 0.00 0.00 0.00 33 1016.7
20260905103501 31 8 8.0 24.1 0.00 0.00 0.00 33 1016.8
20260905102001 31 0 14.5 30.6 0.00 0.00 0.00 31 1016.8
20260905100504 31 0 11.3 29.0 0.00 0.00 0.00 32 1016.8